Time,TemperatureF,DewpointF,PressureIn,WindDirection,WindDirectionDegrees,WindSpeedMPH,WindSpeedGustMPH,Humidity,HourlyPrecipIn,Conditions,Clouds,dailyrainin,SolarRadiationWatts/m^2,SoftwareType,DateUTC
2013-06-01 00:02:00,83.0,70.0,29.73,South,178,9.0,12.0,65,0.00,,,-99.99,-45.000000,,2013-06-01 05:02:00,
2013-06-01 00:12:00,83.0,70.0,29.73,South,178,9.0,12.0,65,0.00,,,-99.99,-45.000000,,2013-06-01 05:12:00,
2013-06-01 00:32:00,82.0,70.0,29.74,South,177,10.0,10.0,66,0.00,,,-99.99,-47.000000,,2013-06-01 05:32:00,
2013-06-01 00:42:00,82.0,70.0,29.74,South,177,10.0,10.0,66,0.00,,,-99.99,-47.000000,,2013-06-01 05:42:00,
2013-06-01 00:52:00,82.0,70.0,29.74,South,177,10.0,10.0,66,0.00,,,-99.99,-47.000000,,2013-06-01 05:52:00,
2013-06-01 01:01:00,82.0,70.0,29.74,South,177,10.0,10.0,66,0.00,,,-99.99,-47.000000,,2013-06-01 06:01:00,
2013-06-01 01:12:00,82.0,70.0,29.74,South,177,10.0,10.0,66,0.00,,,-99.99,-47.000000,,2013-06-01 06:12:00,
2013-06-01 01:32:00,81.0,70.0,29.75,South,177,10.0,10.0,70,0.00,,,-99.99,-41.000000,,2013-06-01 06:32:00,
2013-06-01 01:42:00,81.0,70.0,29.75,South,177,10.0,10.0,70,0.00,,,-99.99,-41.000000,,2013-06-01 06:42:00,
2013-06-01 01:52:00,81.0,70.0,29.75,South,177,10.0,10.0,70,0.00,,,-99.99,-41.000000,,2013-06-01 06:52:00,
2013-06-01 02:01:00,81.0,70.0,29.75,South,177,10.0,10.0,70,0.00,,,-99.99,-41.000000,,2013-06-01 07:01:00,
2013-06-01 02:11:00,81.0,70.0,29.75,South,177,10.0,10.0,70,0.00,,,-99.99,-41.000000,,2013-06-01 07:11:00,
2013-06-01 02:32:00,79.0,70.0,29.73,South,178,10.0,12.0,74,0.00,,,-99.99,-32.000000,,2013-06-01 07:32:00,
2013-06-01 02:42:00,79.0,70.0,29.73,South,178,10.0,12.0,74,0.00,,,-99.99,-32.000000,,2013-06-01 07:42:00,
2013-06-01 02:52:00,79.0,70.0,29.73,South,178,10.0,12.0,74,0.00,,,-99.99,-32.000000,,2013-06-01 07:52:00,
2013-06-01 03:02:00,79.0,70.0,29.73,South,178,10.0,12.0,74,0.00,,,-99.99,-32.000000,,2013-06-01 08:02:00,
2013-06-01 03:11:00,79.0,70.0,29.73,South,178,10.0,12.0,74,0.00,,,-99.99,-32.000000,,2013-06-01 08:11:00,
2013-06-01 03:42:00,78.0,70.0,29.73,South,178,14.0,15.0,77,0.00,,,-99.99,-7.000000,,2013-06-01 08:42:00,
2013-06-01 03:52:00,78.0,70.0,29.73,South,178,14.0,15.0,77,0.00,,,-99.99,-7.000000,,2013-06-01 08:52:00,
2013-06-01 04:01:00,78.0,70.0,29.73,South,178,14.0,15.0,77,0.00,,,-99.99,-7.000000,,2013-06-01 09:01:00,
2013-06-01 04:12:00,78.0,70.0,29.73,South,178,14.0,15.0,77,0.00,,,-99.99,-7.000000,,2013-06-01 09:12:00,
2013-06-01 04:42:00,78.0,70.0,29.75,South,178,9.0,10.0,77,0.00,,,-99.99,-5.000000,,2013-06-01 09:42:00,
2013-06-01 04:53:00,78.0,70.0,29.75,South,178,9.0,10.0,77,0.00,,,-99.99,-5.000000,,2013-06-01 09:53:00,
2013-06-01 05:02:00,78.0,70.0,29.75,South,178,9.0,10.0,77,0.00,,,-99.99,-5.000000,,2013-06-01 10:02:00,
2013-06-01 05:13:00,78.0,70.0,29.75,South,178,9.0,10.0,77,0.00,,,-99.99,-5.000000,,2013-06-01 10:13:00,
2013-06-01 05:33:00,78.0,69.0,29.74,South,178,12.0,14.0,76,0.00,,,-99.99,-13.000000,,2013-06-01 10:33:00,
2013-06-01 05:42:00,78.0,69.0,29.74,South,178,12.0,14.0,76,0.00,,,-99.99,-13.000000,,2013-06-01 10:42:00,
2013-06-01 05:52:00,78.0,69.0,29.74,South,178,12.0,14.0,76,0.00,,,-99.99,-13.000000,,2013-06-01 10:52:00,
2013-06-01 06:02:00,78.0,69.0,29.74,South,178,12.0,14.0,76,0.00,,,-99.99,-13.000000,,2013-06-01 11:02:00,
2013-06-01 06:11:00,78.0,69.0,29.74,South,178,12.0,14.0,76,0.00,,,-99.99,-13.000000,,2013-06-01 11:11:00,
2013-06-01 06:32:00,78.0,69.0,29.79,South,178,7.0,7.0,75,0.00,,,-99.99,-7.000000,,2013-06-01 11:32:00,
2013-06-01 06:42:00,78.0,69.0,29.79,South,178,7.0,7.0,75,0.00,,,-99.99,-7.000000,,2013-06-01 11:42:00,
2013-06-01 06:52:00,78.0,69.0,29.79,South,178,7.0,7.0,75,0.00,,,-99.99,-7.000000,,2013-06-01 11:52:00,
2013-06-01 07:01:00,78.0,69.0,29.79,South,178,7.0,7.0,75,0.00,,,-99.99,-7.000000,,2013-06-01 12:01:00,
2013-06-01 07:12:00,78.0,69.0,29.79,South,178,7.0,7.0,75,0.00,,,-99.99,-7.000000,,2013-06-01 12:12:00,
2013-06-01 07:42:00,78.0,69.0,29.81,South,179,5.0,7.0,75,0.00,,,-99.99,9.000000,,2013-06-01 12:42:00,
2013-06-01 07:52:00,78.0,69.0,29.81,South,179,5.0,7.0,75,0.00,,,-99.99,9.000000,,2013-06-01 12:52:00,
2013-06-01 08:01:00,78.0,69.0,29.81,South,179,5.0,7.0,75,0.00,,,-99.99,9.000000,,2013-06-01 13:01:00,
2013-06-01 08:11:00,78.0,69.0,29.81,South,179,5.0,7.0,75,0.00,,,-99.99,9.000000,,2013-06-01 13:11:00,
2013-06-01 08:42:00,78.0,69.0,29.83,South,178,9.0,9.0,74,0.00,,,-99.99,63.000000,,2013-06-01 13:42:00,
2013-06-01 08:52:00,78.0,69.0,29.83,South,178,9.0,9.0,74,0.00,,,-99.99,63.000000,,2013-06-01 13:52:00,
2013-06-01 09:02:00,78.0,69.0,29.83,South,178,9.0,9.0,74,0.00,,,-99.99,63.000000,,2013-06-01 14:02:00,
2013-06-01 09:11:00,78.0,69.0,29.83,South,178,9.0,9.0,74,0.00,,,-99.99,63.000000,,2013-06-01 14:11:00,
2013-06-01 09:32:00,79.0,69.0,29.86,South,178,9.0,10.0,73,0.00,,,-99.99,110.000000,,2013-06-01 14:32:00,
2013-06-01 09:42:00,79.0,69.0,29.86,South,178,9.0,10.0,73,0.00,,,-99.99,110.000000,,2013-06-01 14:42:00,
2013-06-01 09:52:00,79.0,69.0,29.86,South,178,9.0,10.0,73,0.00,,,-99.99,110.000000,,2013-06-01 14:52:00,
2013-06-01 10:02:00,79.0,69.0,29.86,South,178,9.0,10.0,73,0.00,,,-99.99,110.000000,,2013-06-01 15:02:00,
2013-06-01 10:11:00,79.0,69.0,29.86,South,178,9.0,10.0,73,0.00,,,-99.99,110.000000,,2013-06-01 15:11:00,
2013-06-01 10:33:00,80.0,70.0,29.84,South,176,9.0,10.0,72,0.00,,,-99.99,100.000000,,2013-06-01 15:33:00,
2013-06-01 10:43:00,80.0,70.0,29.84,South,176,9.0,10.0,72,0.00,,,-99.99,100.000000,,2013-06-01 15:43:00,
2013-06-01 10:54:00,80.0,70.0,29.84,South,176,9.0,10.0,72,0.00,,,-99.99,100.000000,,2013-06-01 15:54:00,
2013-06-01 11:03:00,80.0,70.0,29.84,South,176,9.0,10.0,72,0.00,,,-99.99,100.000000,,2013-06-01 16:03:00,
2013-06-01 11:12:00,80.0,70.0,29.84,South,176,9.0,10.0,72,0.00,,,-99.99,100.000000,,2013-06-01 16:12:00,
2013-06-01 11:33:00,82.0,70.0,29.85,South,175,10.0,10.0,68,0.00,,,0.00,231.000000,,2013-06-01 16:33:00,
2013-06-01 11:42:00,82.0,70.0,29.85,South,175,10.0,10.0,68,0.00,,,0.00,231.000000,,2013-06-01 16:42:00,
2013-06-01 11:52:00,82.0,70.0,29.85,South,175,10.0,10.0,68,0.00,,,0.00,231.000000,,2013-06-01 16:52:00,
2013-06-01 12:02:00,82.0,70.0,29.85,South,175,10.0,10.0,68,0.00,,,0.00,231.000000,,2013-06-01 17:02:00,
2013-06-01 12:12:00,82.0,70.0,29.85,South,175,10.0,10.0,68,0.00,,,0.00,231.000000,,2013-06-01 17:12:00,
2013-06-01 12:32:00,84.0,70.0,29.87,South,174,9.0,10.0,64,0.00,,,0.00,557.000000,,2013-06-01 17:32:00,
2013-06-01 12:42:00,84.0,70.0,29.87,South,174,9.0,10.0,64,0.00,,,0.00,557.000000,,2013-06-01 17:42:00,
2013-06-01 12:52:00,84.0,70.0,29.87,South,174,9.0,10.0,64,0.00,,,0.00,557.000000,,2013-06-01 17:52:00,
2013-06-01 13:01:00,84.0,70.0,29.87,South,174,9.0,10.0,64,0.00,,,0.00,557.000000,,2013-06-01 18:01:00,
2013-06-01 13:12:00,84.0,70.0,29.87,South,174,9.0,10.0,64,0.00,,,0.00,557.000000,,2013-06-01 18:12:00,
2013-06-01 13:32:00,85.0,70.0,29.87,South,171,7.0,9.0,60,0.00,,,0.00,199.000000,,2013-06-01 18:32:00,
2013-06-01 13:42:00,85.0,70.0,29.87,South,171,7.0,9.0,60,0.00,,,0.00,199.000000,,2013-06-01 18:42:00,
2013-06-01 13:52:00,85.0,70.0,29.87,South,171,7.0,9.0,60,0.00,,,0.00,199.000000,,2013-06-01 18:52:00,
2013-06-01 14:02:00,85.0,70.0,29.87,South,171,7.0,9.0,60,0.00,,,0.00,199.000000,,2013-06-01 19:02:00,
2013-06-01 14:11:00,85.0,70.0,29.87,South,171,7.0,9.0,60,0.00,,,0.00,199.000000,,2013-06-01 19:11:00,
2013-06-01 14:32:00,77.0,70.0,29.90,South,176,5.0,9.0,80,0.00,,,0.00,220.000000,,2013-06-01 19:32:00,
2013-06-01 14:42:00,77.0,70.0,29.90,South,176,5.0,9.0,80,0.00,,,0.00,220.000000,,2013-06-01 19:42:00,
2013-06-01 14:52:00,77.0,70.0,29.90,South,176,5.0,9.0,80,0.00,,,0.00,220.000000,,2013-06-01 19:52:00,
2013-06-01 15:02:00,77.0,70.0,29.90,South,176,5.0,9.0,80,0.00,,,0.00,220.000000,,2013-06-01 20:02:00,
2013-06-01 15:12:00,77.0,70.0,29.90,South,176,5.0,9.0,80,0.00,,,0.00,220.000000,,2013-06-01 20:12:00,
2013-06-01 15:32:00,79.0,69.0,29.90,South,172,7.0,7.0,71,0.00,,,0.00,228.000000,,2013-06-01 20:32:00,
2013-06-01 15:42:00,79.0,69.0,29.90,South,172,7.0,7.0,71,0.00,,,0.00,228.000000,,2013-06-01 20:42:00,
2013-06-01 15:52:00,79.0,69.0,29.90,South,172,7.0,7.0,71,0.00,,,0.00,228.000000,,2013-06-01 20:52:00,
2013-06-01 16:01:00,79.0,69.0,29.90,South,172,7.0,7.0,71,0.00,,,0.00,228.000000,,2013-06-01 21:01:00,
2013-06-01 16:11:00,79.0,69.0,29.90,South,172,7.0,7.0,71,0.00,,,0.00,228.000000,,2013-06-01 21:11:00,
2013-06-01 16:33:00,80.0,69.0,29.91,South,171,5.0,9.0,70,0.00,,,0.00,471.000000,,2013-06-01 21:33:00,
2013-06-01 16:42:00,80.0,69.0,29.91,South,171,5.0,9.0,70,0.00,,,0.00,471.000000,,2013-06-01 21:42:00,
2013-06-01 16:53:00,80.0,69.0,29.91,South,171,5.0,9.0,70,0.00,,,0.00,471.000000,,2013-06-01 21:53:00,
2013-06-01 17:03:00,80.0,69.0,29.91,South,171,5.0,9.0,70,0.00,,,0.00,471.000000,,2013-06-01 22:03:00,
2013-06-01 17:12:00,80.0,69.0,29.91,South,171,5.0,9.0,70,0.00,,,0.00,471.000000,,2013-06-01 22:12:00,
2013-06-01 18:32:00,78.0,69.0,29.90,South,174,7.0,9.0,74,0.00,,,0.00,68.000000,,2013-06-01 23:32:00,
2013-06-01 18:42:00,78.0,69.0,29.90,South,174,7.0,9.0,74,0.00,,,0.00,68.000000,,2013-06-01 23:42:00,
2013-06-01 18:52:00,78.0,69.0,29.90,South,174,7.0,9.0,74,0.00,,,0.00,68.000000,,2013-06-01 23:52:00,
2013-06-01 19:02:00,78.0,69.0,29.90,South,174,7.0,9.0,74,0.00,,,0.00,68.000000,,2013-06-02 00:02:00,
2013-06-01 19:11:00,78.0,69.0,29.90,South,174,7.0,9.0,74,0.00,,,0.00,68.000000,,2013-06-02 00:11:00,
2013-06-01 19:42:00,78.0,67.0,29.90,South,175,5.0,5.0,70,0.00,,,0.00,7.000000,,2013-06-02 00:42:00,
2013-06-01 19:52:00,78.0,67.0,29.90,South,175,5.0,5.0,70,0.00,,,0.00,7.000000,,2013-06-02 00:52:00,
2013-06-01 20:01:00,78.0,67.0,29.90,South,175,5.0,5.0,70,0.00,,,0.00,7.000000,,2013-06-02 01:01:00,
2013-06-01 20:11:00,78.0,67.0,29.90,South,175,5.0,5.0,70,0.00,,,0.00,7.000000,,2013-06-02 01:11:00,
2013-06-01 20:32:00,77.0,67.0,29.92,South,177,4.0,4.0,71,0.00,,,0.00,-4.000000,,2013-06-02 01:32:00,
2013-06-01 20:42:00,77.0,67.0,29.92,South,177,4.0,4.0,71,0.00,,,0.00,-4.000000,,2013-06-02 01:42:00,
2013-06-01 20:52:00,77.0,67.0,29.92,South,177,4.0,4.0,71,0.00,,,0.00,-4.000000,,2013-06-02 01:52:00,
2013-06-01 21:01:00,77.0,67.0,29.92,South,177,4.0,4.0,71,0.00,,,0.00,-4.000000,,2013-06-02 02:01:00,
2013-06-01 21:12:00,77.0,67.0,29.92,South,177,4.0,4.0,71,0.00,,,0.00,-4.000000,,2013-06-02 02:12:00,
2013-06-01 21:32:00,77.0,67.0,29.94,South,178,4.0,5.0,71,0.00,,,0.00,-10.000000,,2013-06-02 02:32:00,
2013-06-01 21:42:00,77.0,67.0,29.94,South,178,4.0,5.0,71,0.00,,,0.00,-10.000000,,2013-06-02 02:42:00,
2013-06-01 21:52:00,77.0,67.0,29.94,South,178,4.0,5.0,71,0.00,,,0.00,-10.000000,,2013-06-02 02:52:00,
2013-06-01 22:02:00,77.0,67.0,29.94,South,178,4.0,5.0,71,0.00,,,0.00,-10.000000,,2013-06-02 03:02:00,
2013-06-01 22:11:00,77.0,67.0,29.94,South,178,4.0,5.0,71,0.00,,,0.00,-10.000000,,2013-06-02 03:11:00,
2013-06-01 22:33:00,77.0,67.0,29.96,South,178,2.0,2.0,72,0.00,,,0.00,-13.000000,,2013-06-02 03:33:00,
2013-06-01 22:43:00,77.0,67.0,29.96,South,178,2.0,2.0,72,0.00,,,0.00,-13.000000,,2013-06-02 03:43:00,
2013-06-01 22:53:00,77.0,67.0,29.96,South,178,2.0,2.0,72,0.00,,,0.00,-13.000000,,2013-06-02 03:53:00,
2013-06-01 23:02:00,77.0,-99.9,29.96,South,178,2.0,2.0,72,0.00,,,0.00,-13.000000,,2013-06-02 04:02:00,
2013-06-01 23:13:00,77.0,67.0,29.96,South,178,2.0,2.0,72,0.00,,,0.00,-13.000000,,2013-06-02 04:13:00,
2013-06-01 23:33:00,76.0,66.0,29.99,South,179,5.0,5.0,72,0.00,,,0.00,-25.000000,,2013-06-02 04:33:00,
2013-06-01 23:42:00,76.0,66.0,29.99,South,179,5.0,5.0,72,0.00,,,0.00,-25.000000,,2013-06-02 04:42:00,
2013-06-01 23:53:00,76.0,66.0,29.99,South,179,5.0,5.0,72,0.00,,,0.00,-25.000000,,2013-06-02 04:53:00,